DW9780 Oslo NO current weather conditions

sailwx.info

Wind from 243

Air temperature 8.9° C
Dewpoint -44.5° C

Last reported at 2020-May-26 23:01 UTC.
Time now 2020-May-26 23:47 UTC

Location: N 59°47' E 010°42'.
View on Google Maps.

See reports from other nearby stations

  
Tides and Currents Weather Stations Pressure Air Temp Water Temp Dewpoint Dewpoint Depression Visibility Wind Speed Wind Dir Waves Ship Positions
date/time (UTC)wind fromknots sea level pressurealtimeterstation pressurevisibilityair tempwater tempwave heightnotes
2020-May-26 23:01 243 8.9
2020-May-26 22:46 243 9.4
2020-May-26 22:32 242 0 gusting 3 10.0
2020-May-26 22:16 233 10.6
2020-May-26 22:01 234 0 gusting 5 10.6
2020-May-26 21:45 224 1 gusting 4 10.6
2020-May-26 21:30 227 1 gusting 3 10.0
2020-May-26 21:15 254 10.0
2020-May-26 21:01 254 10.6
2020-May-26 20:45 254 10.6
2020-May-26 20:30 275 10.6
2020-May-26 20:15 275 11.1
2020-May-26 20:03 275 12.2
2020-May-26 19:47 202 12.2
2020-May-26 19:32 168 12.8
2020-May-26 19:16 170 12.8
2020-May-26 19:03 159 13.3
2020-May-26 18:46 161 13.3
2020-May-26 18:30 182 2 gusting 5 13.3
2020-May-26 18:16 182 1 gusting 7 13.3
2020-May-26 18:00 213 0 gusting 4 13.9
2020-May-26 17:45 180 0 gusting 3 13.3
2020-May-26 17:15 227 2 gusting 7 13.9
2020-May-26 17:00 221 1 gusting 6 13.9
2020-May-26 16:45 205 0 gusting 3 13.9
2020-May-26 16:32 214 0 gusting 3 13.9
2020-May-26 16:16 156 14.4
2020-May-26 16:02 214 1 gusting 6 14.4
2020-May-26 15:45 180 4 gusting 9 15.0
2020-May-26 15:31 194 5 gusting 13 15.0
2020-May-26 15:16 128 3 gusting 10 15.0
2020-May-26 15:00 124 6 gusting 13 15.0
2020-May-26 14:46 200 6 gusting 13 15.0
2020-May-26 14:30 146 6 gusting 19 15.6
2020-May-26 14:15 130 6 gusting 13 15.6
2020-May-26 14:00 155 6 gusting 12 15.6
2020-May-26 13:45 177 6 gusting 16 16.1
2020-May-26 13:30 196 6 gusting 13 16.1
2020-May-26 13:16 180 6 gusting 19 16.1
2020-May-26 13:01 105 6 gusting 12 16.7
2020-May-26 12:46 199 6 gusting 14 16.1
2020-May-26 12:32 189 6 gusting 16 16.1
2020-May-26 12:16 123 6 gusting 14 16.7
2020-May-26 12:00 225 4 gusting 13 16.1
2020-May-26 11:46 196 6 gusting 15 16.1
2020-May-26 11:31 198 6 gusting 13 16.7
2020-May-26 11:16 126 4 gusting 8 16.1
2020-May-26 11:00 169 6 gusting 13 16.7
2020-May-26 10:45 155 6 gusting 13 16.7
2020-May-26 10:30 198 5 gusting 13 16.1
2020-May-26 10:16 196 4 gusting 8 16.1
2020-May-26 10:01 128 3 gusting 12 15.6
2020-May-26 09:45 199 5 gusting 10 16.1
2020-May-26 09:31 153 3 gusting 12 16.1
2020-May-26 09:15 170 5 gusting 12 16.1
2020-May-26 09:01 186 2 gusting 7 15.6
2020-May-26 08:45 153 2 gusting 7 14.4
2020-May-26 08:30 151 3 gusting 9 14.4
2020-May-26 08:15 134 2 gusting 9 13.9
2020-May-26 08:00 125 2 gusting 7 14.4
2020-May-26 07:45 196 1 gusting 7 14.4
2020-May-26 07:32 151 1 gusting 6 14.4
2020-May-26 07:17 162 1 gusting 4 13.3
2020-May-26 07:01 169 1 gusting 6 12.8
2020-May-26 06:48 141 0 gusting 2 12.2
2020-May-26 06:31 159 0 gusting 4 11.7
2020-May-26 06:16 121 2 gusting 5 11.7
2020-May-26 06:01 155 1 gusting 6 11.7
2020-May-26 05:45 205 1 gusting 7 11.7
2020-May-26 05:30 188 11.1
2020-May-26 05:15 156 10.6
2020-May-26 05:00 156 10.6
2020-May-26 04:45 156 10.0
2020-May-26 04:30 156 10.0